TimeADT,TemperatureF,Dew PointF,Humidity,Sea Level PressureIn,VisibilityMPH,Wind Direction,Wind SpeedMPH,Gust SpeedMPH,PrecipitationIn,Events,Conditions,WindDirDegrees,DateUTC
12:00 AM,30.2,30.2,100,30.00,15.0,South,3.5,-,N/A,,Clear,170,2013-06-26 03:00:00
1:00 AM,32.0,32.0,100,30.00,15.0,SSE,4.6,-,N/A,,Clear,160,2013-06-26 04:00:00
2:00 AM,30.2,30.2,100,30.00,15.0,South,4.6,-,N/A,,Clear,180,2013-06-26 05:00:00
2:42 AM,28.4,28.4,100,30.01,0.4,South,4.6,-,N/A,Fog,Light Freezing Fog,180,2013-06-26 05:42:00
3:00 AM,29,29,100,30.01,0,South,4.6,,,Fog,Partial Fog,170,2013-06-26 06:00:00
3:00 AM,28.4,28.4,100,30.01,0.4,SSE,4.6,-,N/A,Fog,Light Freezing Fog,160,2013-06-26 06:00:00
3:21 AM,28.4,28.4,100,30.01,10.0,South,5.8,-,N/A,,Clear,170,2013-06-26 06:21:00
4:00 AM,30.2,30.2,100,30.01,10.0,SSE,6.9,-,N/A,,Clear,160,2013-06-26 07:00:00
5:00 AM,28.4,28.4,100,30.01,15.0,South,6.9,-,N/A,,Clear,170,2013-06-26 08:00:00
5:28 AM,30.2,30.2,100,30.02,0.5,South,4.6,-,N/A,Fog,Light Freezing Fog,180,2013-06-26 08:28:00
5:46 AM,30.2,30.2,100,30.03,10.0,South,3.5,-,N/A,,Clear,180,2013-06-26 08:46:00
6:00 AM,30.2,30.2,100,30.04,8.0,South,8.1,-,N/A,,Clear,170,2013-06-26 09:00:00
7:00 AM,35.6,33.8,93,30.03,15.0,SSE,2.3,-,N/A,,Clear,160,2013-06-26 10:00:00
8:00 AM,42.8,37.4,81,30.04,15.0,SSW,3.5,-,N/A,,Clear,200,2013-06-26 11:00:00
9:00 AM,48,38,59,30.04,15,SW,2.3,,,,,220,2013-06-26 12:00:00
9:00 AM,48.2,37.4,66,30.03,15.0,SW,3.5,-,N/A,,Clear,220,2013-06-26 12:00:00
10:00 AM,53.6,30.2,41,30.03,15.0,NW,3.5,-,N/A,,Partly Cloudy,320,2013-06-26 13:00:00
11:00 AM,57.2,28.4,33,30.02,15.0,NNE,3.5,-,N/A,,Partly Cloudy,30,2013-06-26 14:00:00
12:00 PM,59.0,28.4,31,30.02,15.0,Calm,Calm,-,N/A,,Partly Cloudy,0,2013-06-26 15:00:00
1:00 PM,60.8,28.4,29,30.01,15.0,Calm,Calm,-,N/A,,Partly Cloudy,0,2013-06-26 16:00:00
2:00 PM,62.6,28.4,27,30.01,15.0,SSE,4.6,-,N/A,,Partly Cloudy,160,2013-06-26 17:00:00
3:00 PM,64,31,18,30.00,15,ENE,2.3,,,,Scattered Clouds,60,2013-06-26 18:00:00
3:00 PM,64.4,30.2,28,30.00,15.0,Variable,2.3,-,N/A,,Partly Cloudy,0,2013-06-26 18:00:00
4:00 PM,64.4,30.2,28,29.99,15.0,ENE,3.5,-,N/A,,Partly Cloudy,70,2013-06-26 19:00:00
5:00 PM,66.2,28.4,24,30.00,15.0,West,5.8,-,N/A,,Partly Cloudy,270,2013-06-26 20:00:00
6:00 PM,66.2,32.0,28,29.99,15.0,West,3.5,-,N/A,,Partly Cloudy,260,2013-06-26 21:00:00
7:00 PM,64.4,28.4,26,29.99,15.0,SSE,8.1,-,N/A,,Partly Cloudy,150,2013-06-26 22:00:00
8:00 PM,62.6,28.4,27,29.99,15.0,SSE,10.4,-,N/A,,Partly Cloudy,160,2013-06-26 23:00:00
9:00 PM,61,31,21,29.99,15,SSE,6.9,,,,Clear,160,2013-06-27 00:00:00
9:00 PM,60.8,30.2,31,29.99,15.0,SSE,5.8,-,N/A,,Partly Cloudy,160,2013-06-27 00:00:00
10:00 PM,53.6,33.8,47,30.00,12.0,South,5.8,-,N/A,,Partly Cloudy,170,2013-06-27 01:00:00
11:00 PM,50.0,37.4,62,30.01,10.0,South,5.8,-,N/A,,Partly Cloudy,170,2013-06-27 02:00:00